timestamp,wind_dir_avg,wind_spd_avg,wind_spd_max_dir,wind_spd_gust,battery_voltage,lat,long
2023-04-20 00:04:00+00:00,11.0,1.07,80.0,3.73,12.33,47.59359,-54.27349
2023-04-20 00:14:00+00:00,71.0,3.32,63.0,4.16,12.33,47.59359,-54.27349
2023-04-20 00:24:00+00:00,78.0,3.12,82.0,4.42,12.33,47.59359,-54.27349
2023-04-20 00:34:00+00:00,80.0,2.33,88.0,3.77,12.33,47.59359,-54.27349
2023-04-20 00:44:00+00:00,70.0,2.9,51.0,3.91,12.33,47.59359,-54.27349
2023-04-20 00:54:00+00:00,73.0,2.66,75.0,4.29,12.33,47.59359,-54.27349
2023-04-20 01:04:00+00:00,72.0,3.19,70.0,4.36,12.33,47.59359,-54.27349
2023-04-20 01:14:00+00:00,135.0,0.44,107.0,3.84,12.25,47.59359,-54.27349
2023-04-20 01:24:00+00:00,52.0,0.99,68.0,4.48,12.25,47.59359,-54.27349
2023-04-20 01:34:00+00:00,89.0,1.98,99.0,7.12,12.25,47.59359,-54.27349
2023-04-20 01:44:00+00:00,240.0,0.46,74.0,3.61,12.25,47.59359,-54.27349
2023-04-20 01:54:00+00:00,102.0,3.89,113.0,5.39,12.25,47.59359,-54.27349
2023-04-20 02:04:00+00:00,95.0,3.9,106.0,5.43,12.25,47.59359,-54.27349
2023-04-20 02:14:01+00:00,103.0,3.46,103.0,4.88,12.25,47.59359,-54.27349
2023-04-20 02:24:01+00:00,91.0,2.8,82.0,4.26,12.25,47.59359,-54.27349
2023-04-20 02:34:01+00:00,80.0,2.37,83.0,3.31,12.25,47.59359,-54.27349
2023-04-20 02:44:01+00:00,85.0,2.68,88.0,3.54,12.25,47.59359,-54.27349
2023-04-20 02:54:01+00:00,74.0,3.15,83.0,4.06,12.25,47.59359,-54.27349
2023-04-20 03:04:01+00:00,93.0,1.83,109.0,2.83,12.25,47.59359,-54.27349
2023-04-20 03:14:00+00:00,96.0,2.24,95.0,3.25,12.25,47.59359,-54.27349
2023-04-20 03:24:00+00:00,92.0,2.15,73.0,3.78,12.25,47.59359,-54.27349
2023-04-20 03:34:00+00:00,89.0,2.66,88.0,4.45,12.25,47.59359,-54.27349
2023-04-20 03:44:00+00:00,89.0,1.76,138.0,2.95,12.25,47.59359,-54.27349
2023-04-20 03:54:00+00:00,90.0,2.21,74.0,4.21,12.25,47.59359,-54.27349
2023-04-20 04:04:00+00:00,93.0,2.84,83.0,4.76,12.25,47.59359,-54.27349
2023-04-20 04:14:00+00:00,91.0,2.1,94.0,3.44,12.25,47.59359,-54.27349
2023-04-20 04:24:00+00:00,95.0,1.96,96.0,3.29,12.25,47.59359,-54.27349
2023-04-20 04:34:00+00:00,92.0,2.16,90.0,3.4,12.25,47.59359,-54.27349
2023-04-20 04:44:00+00:00,96.0,2.8,92.0,3.82,12.25,47.59359,-54.27349
2023-04-20 04:54:00+00:00,94.0,2.33,99.0,3.66,12.25,47.59359,-54.27349
2023-04-20 05:04:00+00:00,104.0,3.2,114.0,4.31,12.25,47.59359,-54.27349
2023-04-20 05:14:01+00:00,87.0,2.84,92.0,4.03,12.17,47.59359,-54.27349
2023-04-20 05:24:01+00:00,90.0,1.93,92.0,3.21,12.17,47.59359,-54.27349
2023-04-20 05:34:01+00:00,100.0,2.81,107.0,3.93,12.17,47.59359,-54.27349
2023-04-20 05:44:01+00:00,105.0,2.32,114.0,3.11,12.17,47.59359,-54.27349
2023-04-20 05:54:01+00:00,86.0,2.13,112.0,3.22,12.17,47.59359,-54.27349
2023-04-20 06:04:01+00:00,105.0,2.53,106.0,3.98,12.17,47.59359,-54.27349
2023-04-20 06:14:01+00:00,91.0,1.9,98.0,3.14,12.17,47.59359,-54.27349
2023-04-20 06:24:01+00:00,89.0,2.65,93.0,3.56,12.17,47.59359,-54.27349
2023-04-20 06:34:01+00:00,98.0,2.39,106.0,3.69,12.17,47.59359,-54.27349
2023-04-20 06:44:01+00:00,77.0,3.01,93.0,4.06,12.17,47.59359,-54.27349
2023-04-20 06:54:01+00:00,72.0,3.22,63.0,4.35,12.17,47.59359,-54.27349
2023-04-20 07:04:01+00:00,68.0,3.13,82.0,4.02,12.17,47.59359,-54.27349
2023-04-20 07:14:00+00:00,77.0,3.16,91.0,4.47,12.17,47.59359,-54.27349
2023-04-20 07:24:00+00:00,84.0,2.36,113.0,4.01,12.17,47.59359,-54.27349
2023-04-20 07:34:00+00:00,77.0,2.0,67.0,3.04,12.17,47.59359,-54.27349
2023-04-20 07:44:00+00:00,69.0,1.96,65.0,3.79,12.17,47.59359,-54.27349
2023-04-20 07:54:00+00:00,93.0,2.97,85.0,3.84,12.17,47.59359,-54.27349
2023-04-20 08:04:00+00:00,84.0,2.14,68.0,3.56,12.17,47.59359,-54.27349
2023-04-20 08:14:01+00:00,78.0,2.95,75.0,4.19,12.09,47.59359,-54.27349
2023-04-20 08:24:01+00:00,81.0,3.22,94.0,4.2,12.09,47.59359,-54.27349
2023-04-20 08:34:01+00:00,76.0,4.73,79.0,6.37,12.09,47.59359,-54.27349
2023-04-20 08:44:01+00:00,75.0,4.91,84.0,6.91,12.09,47.59359,-54.27349
2023-04-20 08:54:01+00:00,73.0,5.51,76.0,7.36,12.09,47.59359,-54.27349
2023-04-20 09:04:01+00:00,100.0,5.57,100.0,5.57,12.09,47.59359,-54.27349
2023-04-20 09:14:01+00:00,315.0,0.01,58.0,0.0,12.09,47.59359,-54.27349
2023-04-20 09:24:01+00:00,71.0,5.19,71.0,5.2,12.09,47.59359,-54.27349
2023-04-20 09:34:01+00:00,315.0,0.01,71.0,0.0,12.09,47.59359,-54.27349
2023-04-20 09:44:01+00:00,96.0,6.24,108.0,9.33,12.09,47.59359,-54.27349
2023-04-20 09:54:01+00:00,93.0,3.52,99.0,4.97,12.09,47.59359,-54.27349
2023-04-20 10:04:01+00:00,83.0,4.16,100.0,6.12,12.09,47.59359,-54.27349
2023-04-20 10:14:00+00:00,81.0,3.32,83.0,4.66,12.25,47.59359,-54.27349
2023-04-20 10:24:00+00:00,77.0,2.77,88.0,4.15,12.25,47.59359,-54.27349
2023-04-20 10:34:00+00:00,78.0,1.75,76.0,2.51,12.25,47.59359,-54.27349
2023-04-20 10:44:00+00:00,88.0,2.17,92.0,3.45,12.25,47.59359,-54.27349
2023-04-20 10:54:00+00:00,81.0,2.17,86.0,3.32,12.25,47.59359,-54.27349
2023-04-20 11:04:00+00:00,83.0,2.44,78.0,4.0,12.25,47.59359,-54.27349
2023-04-20 11:14:01+00:00,66.0,2.25,75.0,3.0,12.89,47.59359,-54.27349
2023-04-20 11:24:01+00:00,75.0,2.64,72.0,3.29,12.89,47.59359,-54.27349
2023-04-20 11:34:01+00:00,73.0,2.82,75.0,3.68,12.89,47.59359,-54.27349
2023-04-20 11:44:01+00:00,61.0,2.56,57.0,2.9,12.89,47.59359,-54.27349
2023-04-20 11:54:01+00:00,51.0,4.02,48.0,4.42,12.89,47.59359,-54.27349
2023-04-20 12:04:01+00:00,50.0,4.43,48.0,4.97,12.89,47.59359,-54.27349
2023-04-20 13:14:00+00:00,42.0,4.64,43.0,4.98,13.29,47.59359,-54.27349
2023-04-20 13:24:00+00:00,41.0,4.49,40.0,4.76,13.29,47.59359,-54.27349
2023-04-20 13:34:00+00:00,46.0,4.82,43.0,5.36,13.29,47.59359,-54.27349
2023-04-20 13:44:00+00:00,49.0,4.31,51.0,4.78,13.29,47.59359,-54.27349
2023-04-20 13:54:00+00:00,60.0,3.99,59.0,4.44,13.29,47.59359,-54.27349
2023-04-20 14:04:00+00:00,65.0,3.28,61.0,3.63,13.29,47.59359,-54.27349
2023-04-20 14:14:00+00:00,74.0,1.88,101.0,2.98,13.37,47.59359,-54.27349
2023-04-20 14:24:00+00:00,93.0,2.21,89.0,4.08,13.37,47.59359,-54.27349
2023-04-20 14:34:00+00:00,97.0,1.97,108.0,3.78,13.37,47.59359,-54.27349
2023-04-20 14:44:00+00:00,99.0,2.57,83.0,4.49,13.37,47.59359,-54.27349
2023-04-20 14:54:00+00:00,93.0,2.7,99.0,4.24,13.37,47.59359,-54.27349
2023-04-20 15:04:00+00:00,72.0,2.05,86.0,4.12,13.37,47.59359,-54.27349
2023-04-20 15:14:01+00:00,66.0,3.32,72.0,4.16,13.68,47.59359,-54.27349
2023-04-20 15:24:01+00:00,47.0,6.0,57.0,8.31,13.68,47.59359,-54.27349
2023-04-20 15:34:01+00:00,56.0,5.75,53.0,6.69,13.68,47.59359,-54.27349
2023-04-20 15:44:01+00:00,46.0,6.53,46.0,7.21,13.68,47.59359,-54.27349
2023-04-20 15:54:01+00:00,49.0,6.78,50.0,7.29,13.68,47.59359,-54.27349
2023-04-20 16:04:01+00:00,52.0,5.49,48.0,6.34,13.68,47.59359,-54.27349
2023-04-20 16:14:00+00:00,54.0,5.58,52.0,6.34,13.68,47.59359,-54.27349
2023-04-20 16:24:00+00:00,60.0,4.34,55.0,4.97,13.68,47.59359,-54.27349
2023-04-20 16:34:00+00:00,66.0,4.4,60.0,4.86,13.68,47.59359,-54.27349
2023-04-20 16:44:00+00:00,78.0,3.79,74.0,5.83,13.68,47.59359,-54.27349
2023-04-20 16:54:00+00:00,78.0,4.05,76.0,6.47,13.68,47.59359,-54.27349
2023-04-20 17:04:00+00:00,81.0,4.86,77.0,7.03,13.68,47.59359,-54.27349
2023-04-20 17:14:00+00:00,82.0,5.56,92.0,7.81,13.68,47.59359,-54.27349
2023-04-20 17:24:00+00:00,82.0,4.63,67.0,7.08,13.68,47.59359,-54.27349
2023-04-20 17:34:00+00:00,80.0,4.84,63.0,7.07,13.68,47.59359,-54.27349
2023-04-20 17:44:00+00:00,75.0,5.03,83.0,7.0,13.68,47.59359,-54.27349
2023-04-20 17:54:00+00:00,79.0,4.33,69.0,6.24,13.68,47.59359,-54.27349
2023-04-20 18:04:00+00:00,75.0,5.93,74.0,8.02,13.68,47.59359,-54.27349
2023-04-20 18:14:01+00:00,91.0,4.56,89.0,6.77,13.68,47.59359,-54.27349
2023-04-20 18:24:01+00:00,90.0,4.85,113.0,7.64,13.68,47.59359,-54.27349
2023-04-20 18:34:01+00:00,76.0,4.94,84.0,7.09,13.68,47.59359,-54.27349
2023-04-20 18:44:01+00:00,72.0,5.56,70.0,7.51,13.68,47.59359,-54.27349
2023-04-20 18:54:01+00:00,77.0,5.03,70.0,7.46,13.68,47.59359,-54.27349
2023-04-20 19:04:01+00:00,76.0,5.1,67.0,6.69,13.68,47.59359,-54.27349
2023-04-20 19:14:00+00:00,73.0,5.76,69.0,6.92,13.29,47.59359,-54.27349
2023-04-20 19:24:00+00:00,57.0,5.03,58.0,5.64,13.29,47.59359,-54.27349
2023-04-20 19:34:00+00:00,68.0,4.48,67.0,5.65,13.29,47.59359,-54.27349
2023-04-20 19:44:00+00:00,83.0,5.48,72.0,7.48,13.29,47.59359,-54.27349
2023-04-20 19:54:00+00:00,78.0,5.7,72.0,8.1,13.29,47.59359,-54.27349
2023-04-20 20:04:00+00:00,80.0,5.19,81.0,7.41,13.29,47.59359,-54.27349
2023-04-20 20:14:01+00:00,91.0,3.83,99.0,6.35,13.05,47.59359,-54.27349
2023-04-20 20:24:01+00:00,82.0,4.39,81.0,6.41,13.05,47.59359,-54.27349
2023-04-20 20:34:01+00:00,81.0,4.07,74.0,6.38,13.05,47.59359,-54.27349
2023-04-20 20:44:01+00:00,90.0,3.57,128.0,6.02,13.05,47.59359,-54.27349
2023-04-20 20:54:01+00:00,88.0,5.06,82.0,6.86,13.05,47.59359,-54.27349
2023-04-20 21:04:01+00:00,72.0,6.81,70.0,7.6,13.05,47.59359,-54.27349
2023-04-20 21:14:00+00:00,67.0,7.71,68.0,8.54,12.57,47.59359,-54.27349
2023-04-20 21:24:00+00:00,71.0,8.6,69.0,9.77,12.57,47.59359,-54.27349
2023-04-20 21:34:00+00:00,70.0,9.08,67.0,11.36,12.57,47.59359,-54.27349
2023-04-20 21:44:00+00:00,69.0,8.8,68.0,11.16,12.57,47.59359,-54.27349
2023-04-20 21:54:00+00:00,75.0,7.04,88.0,10.03,12.57,47.59359,-54.27349
2023-04-20 22:04:00+00:00,72.0,7.92,62.0,10.64,12.57,47.59359,-54.27349
2023-04-20 22:14:00+00:00,73.0,8.02,70.0,10.39,12.33,47.59359,-54.27349
2023-04-20 22:24:00+00:00,75.0,6.27,61.0,8.8,12.33,47.59359,-54.27349
2023-04-20 22:34:00+00:00,71.0,9.09,68.0,10.95,12.33,47.59359,-54.27349
2023-04-20 22:44:00+00:00,60.0,7.83,62.0,9.66,12.33,47.59359,-54.27349
2023-04-20 22:54:00+00:00,58.0,8.52,61.0,9.54,12.33,47.59359,-54.27349
2023-04-20 23:04:00+00:00,55.0,8.54,56.0,9.42,12.33,47.59359,-54.27349
2023-04-20 23:14:01+00:00,58.0,8.98,58.0,10.24,12.33,47.59359,-54.27349
2023-04-20 23:24:01+00:00,53.0,8.91,49.0,9.67,12.33,47.59359,-54.27349
2023-04-20 23:34:01+00:00,56.0,8.62,61.0,9.64,12.33,47.59359,-54.27349
2023-04-20 23:44:01+00:00,54.0,8.67,52.0,9.59,12.33,47.59359,-54.27349
2023-04-20 23:54:01+00:00,57.0,9.34,59.0,11.77,12.33,47.59359,-54.27349
